FW9692 Weather Reports


Display with metric or nautical units.
time (UTC)temp
F
wind
direction
speed
MPH
gust
MPH
rain 1hr
in
rain 24hr
in
rain mn
in
humidity
%
barometer
mb
20260901160031 86 189 8.0 12.0 0.00 0.00 0.00 43 1002.5
20260901154528 85 210 4.0 8.0 0.00 0.00 0.00 45 1002.6
20260901153036 84 178 4.0 7.0 0.00 0.00 0.00 46 1002.5
20260901151522 83 189 5.0 8.0 0.00 0.00 0.00 49 1002.4
20260901150015 81 157 6.0 9.0 0.00 0.00 0.00 52 1002.5
20260901144524 80 178 7.0 10.0 0.00 0.00 0.00 54 1002.6
20260901143008 78 158 13.0 17.0 0.00 0.00 0.00 56 1002.6
20260901141511 78 155 14.0 18.0 0.00 0.00 0.00 57 1002.5
20260901140007 77 148 14.0 19.0 0.00 0.00 0.00 59 1002.6
20260901134508 76 149 12.0 16.0 0.00 0.00 0.00 60 1002.5
20260901133007 75 149 11.0 14.0 0.00 0.00 0.00 61 1002.4
20260901131508 75 144 11.0 14.0 0.00 0.00 0.00 62 1002.2
20260901130004 75 144 10.0 14.0 0.00 0.00 0.00 62 1002.1
20260901124502 75 144 10.0 13.0 0.00 0.00 0.00 62 1001.8
20260901123058 75 142 12.0 15.0 0.00 0.00 0.00 61 1001.5
20260901121610 75 139 11.0 14.0 0.00 0.00 0.00 61 1001.3
20260901120106 75 139 11.0 14.0 0.00 0.00 0.00 61 1001.2
20260901114601 75 144 13.0 16.0 0.00 0.00 0.00 61 1001.2
20260901113055 76 146 12.0 17.0 0.00 0.00 0.00 60 1001.1
20260901111554 76 140 13.0 16.0 0.00 0.00 0.00 60 1001.2
20260901110152 76 153 13.0 16.0 0.00 0.00 0.00 59 1001.1
20260901104551 77 142 13.0 16.0 0.00 0.00 0.00 58 1001.0
20260901103106 77 138 10.0 14.0 0.00 0.00 0.00 58 1000.8
20260901101553 77 138 9.0 11.0 0.00 0.00 0.00 57 1000.9
20260901100055 77 147 6.0 10.0 0.00 0.00 0.00 57 1001.1
20260901094550 77 221 2.0 6.0 0.00 0.00 0.00 57 1001.0
20260901093114 78 132 4.0 9.0 0.00 0.00 0.00 56 1000.9
20260901091600 78 110 4.0 10.0 0.00 0.00 0.00 56 1000.8
20260901090039 78 119 11.0 15.0 0.00 0.00 0.00 57 1000.8
20260901084537 78 124 9.0 12.0 0.00 0.00 0.00 56 1000.8
20260901083043 78 107 7.0 10.0 0.00 0.00 0.00 56 1000.8
20260901081537 79 140 9.0 10.0 0.00 0.00 0.00 56 1000.8
20260901080043 79 171 6.0 7.0 0.00 0.00 0.00 56 1001.0
20260901074536 78 190 6.0 10.0 0.00 0.00 0.00 57 1001.0
20260901073035 78 232 5.0 7.0 0.00 0.00 0.00 58 1001.3
20260901071535 78 217 4.0 6.0 0.00 0.00 0.00 58 1001.1
20260901070037 78 216 5.0 7.0 0.00 0.00 0.00 58 1000.9
20260901064538 77 233 4.0 7.0 0.00 0.00 0.00 57 1000.8
20260901063037 78 218 5.0 9.0 0.00 0.00 0.00 57 1000.7
20260901061535 78 229 8.0 10.0 0.00 0.00 0.00 56 1000.6
20260901060034 79 194 9.0 14.0 0.00 0.00 0.00 55 1000.4
20260901054532 79 201 9.0 14.0 0.00 0.00 0.00 54 1000.3
20260901053036 80 186 18.0 23.0 0.00 0.00 0.00 50 1000.3
20260901051533 80 171 20.0 24.0 0.00 0.00 0.00 50 1000.0
20260901050031 81 165 21.0 26.0 0.00 0.00 0.00 49 999.8
20260901044531 80 173 20.0 25.0 0.00 0.00 0.00 51 999.7
20260901043031 80 171 20.0 25.0 0.00 0.00 0.00 51 999.7
20260901041601 80 173 20.0 26.0 0.00 0.00 0.00 51 999.6
20260901034558 79 187 18.0 28.0 0.00 0.00 0.00 53 999.5
20260901033057 83 196 32.0 38.0 0.00 0.00 0.00 46 999.3
20260901031534 84 177 27.0 31.0 0.00 0.00 0.00 43 999.2
20260901030030 84 163 29.0 37.0 0.00 0.00 0.00 42 998.7
20260901024531 85 169 32.0 40.0 0.00 0.00 0.00 42 998.4
20260901023033 83 167 28.0 33.0 0.00 0.00 0.00 44 997.9
20260901021538 81 189 30.0 43.0 0.00 0.00 0.00 51 997.9
20260901020037 87 183 32.0 39.0 0.00 0.00 0.00 41 997.7
20260901014537 92 138 29.0 40.0 0.00 0.00 0.00 36 997.0
20260901013036 92 145 27.0 36.0 0.00 0.00 0.00 34 996.7
20260901011531 93 132 30.0 35.0 0.00 0.00 0.00 34 996.6
20260901010039 94 124 22.0 30.0 0.00 0.00 0.00 33 996.9
20260901004530 94 129 22.0 30.0 0.00 0.00 0.00 32 996.8
20260901003029 95 138 20.0 26.0 0.00 0.00 0.00 31 996.4
20260901001533 95 139 24.0 32.0 0.00 0.00 0.00 31 996.3
20260901000029 95 139 17.0 26.0 0.00 0.00 0.00 30 996.5
20260831234539 97 147 16.0 26.0 0.00 0.00 0.00 26 996.5
20260831233021 96 137 10.0 20.0 0.00 0.00 0.00 27 996.5
20260831231529 96 124 15.0 23.0 0.00 0.00 0.00 26 996.6
20260831230029 96 90 11.0 20.0 0.00 0.00 0.00 27 996.6
20260831224528 97 140 15.0 25.0 0.00 0.00 0.00 26 996.5
20260831223024 96 49 15.0 22.0 0.00 0.00 0.00 27 996.6
20260831221536 96 138 18.0 24.0 0.00 0.00 0.00 26 996.8
20260831220027 97 92 12.0 23.0 0.00 0.00 0.00 26 997.0
20260831214540 97 85 10.0 17.0 0.00 0.00 0.00 25 997.3
20260831213030 97 88 13.0 18.0 0.00 0.00 0.00 26 997.5
20260831211515 97 178 1.0 6.0 0.00 0.00 0.00 25 997.9
20260831210008 95 111 6.0 18.0 0.00 0.00 0.00 27 998.3
20260831204506 96 165 3.0 14.0 0.00 0.00 0.00 28 998.4
20260831203006 96 90 8.0 15.0 0.00 0.00 0.00 28 998.6
20260831201518 95 350 7.0 12.0 0.00 0.00 0.00 27 999.0
20260831200019 95 65 4.0 10.0 0.00 0.00 0.00 28 999.2
20260831194518 94 182 6.0 13.0 0.00 0.00 0.00 29 999.3
20260831193013 95 167 7.0 16.0 0.00 0.00 0.00 29 999.5
20260831191508 94 259 5.0 11.0 0.00 0.00 0.00 30 999.7
20260831190008 93 289 3.0 11.0 0.00 0.00 0.00 31 999.8
20260831184506 93 244 10.0 12.0 0.00 0.00 0.00 31 1000.0
20260831183004 94 275 4.0 8.0 0.00 0.00 0.00 30 1000.2
20260831181601 93 86 6.0 10.0 0.00 0.00 0.00 32 1000.4
20260831180054 92 15 4.0 8.0 0.00 0.00 0.00 33 1000.6
20260831174553 91 221 5.0 12.0 0.00 0.00 0.00 34 1000.6
20260831173049 91 162 4.0 13.0 0.00 0.00 0.00 35 1000.7
20260831171558 89 51 2.0 16.0 0.00 0.00 0.00 37 1000.9
20260831170054 90 121 6.0 10.0 0.00 0.00 0.00 37 1001.0
20260831164552 89 137 2.0 10.0 0.00 0.00 0.00 39 1001.2
20260831163048 87 51 3.0 9.0 0.00 0.00 0.00 41 1001.2
20260831161537 86 144 5.0 10.0 0.00 0.00 0.00 44 1001.2